Retour au catalogue

STARLINK-30274

ActifCommunicationsVLEO
NORAD 57672·PAYLOAD·🇺🇸 United States

Lancé Aug 22, 2023 depuis Vandenberg Space Force Base

Loading…

Prochains Passages (prochaines 24 heures)

TLE

FraisSource: CelesTrak SupGP

Époque: Sep 15, 2026, 02:53 UTC

1 57672C 23124K   26258.12062500 -.00009500  00000+0 -28076-3 0  2587
2 57672  53.1585  44.5327 0001273  90.8823 316.6310 15.34385685    13

Suivez STARLINK-30274 en temps réel avec AllMySat

Download on the App Store